Year,Month,Day,Hour,Minute,Value (Times are PST for temperature in C)
2017,08,10,00,00,16.70
2017,08,10,00,01,16.70
2017,08,10,00,02,16.70
2017,08,10,00,03,16.70
2017,08,10,00,04,16.70
2017,08,10,00,05,16.60
2017,08,10,00,06,16.60
2017,08,10,00,07,16.60
2017,08,10,00,08,16.60
2017,08,10,00,09,16.60
2017,08,10,00,10,16.60
2017,08,10,00,11,16.50
2017,08,10,00,12,16.50
2017,08,10,00,13,16.50
2017,08,10,00,14,16.50
2017,08,10,00,15,16.40
2017,08,10,00,16,16.40
2017,08,10,00,17,16.40
2017,08,10,00,18,16.40
2017,08,10,00,19,16.30
2017,08,10,00,20,16.30
2017,08,10,00,21,16.30
2017,08,10,00,22,16.30
2017,08,10,00,23,16.30
2017,08,10,00,24,16.20
2017,08,10,00,25,16.20
2017,08,10,00,26,16.20
2017,08,10,00,27,16.20
2017,08,10,00,28,16.10
2017,08,10,00,29,16.10
2017,08,10,00,30,16.10
2017,08,10,00,31,16.10
2017,08,10,00,32,16.10
2017,08,10,00,33,16.10
2017,08,10,00,34,16.00
2017,08,10,00,35,16.00
2017,08,10,00,36,16.00
2017,08,10,00,37,16.00
2017,08,10,00,38,16.00
2017,08,10,00,39,16.00
2017,08,10,00,40,16.00
2017,08,10,00,41,16.00
2017,08,10,00,42,16.00
2017,08,10,00,43,16.00
2017,08,10,00,44,16.00
2017,08,10,00,45,15.90
2017,08,10,00,46,15.90
2017,08,10,00,47,15.90
2017,08,10,00,48,15.90
2017,08,10,00,49,15.90
2017,08,10,00,50,15.90
2017,08,10,00,51,15.90
2017,08,10,00,52,15.90
2017,08,10,00,53,15.90
2017,08,10,00,54,15.90
2017,08,10,00,55,15.90
2017,08,10,00,56,15.90
2017,08,10,00,57,15.90
2017,08,10,00,58,15.90
2017,08,10,00,59,15.90
2017,08,10,01,00,15.90
2017,08,10,01,01,15.90
2017,08,10,01,02,15.90
2017,08,10,01,03,15.90
2017,08,10,01,04,15.90
2017,08,10,01,05,15.90
2017,08,10,01,06,15.90
2017,08,10,01,07,15.90
2017,08,10,01,08,15.90
2017,08,10,01,09,15.90
2017,08,10,01,10,15.90
2017,08,10,01,11,15.90
2017,08,10,01,12,15.90
2017,08,10,01,13,15.90
2017,08,10,01,14,15.90
2017,08,10,01,15,15.80
2017,08,10,01,16,15.80
2017,08,10,01,17,15.80
2017,08,10,01,18,15.80
2017,08,10,01,19,15.80
2017,08,10,01,20,15.80
2017,08,10,01,21,15.80
2017,08,10,01,22,15.80
2017,08,10,01,23,15.80
2017,08,10,01,24,15.80
2017,08,10,01,25,15.80
2017,08,10,01,26,15.80
2017,08,10,01,27,15.80
2017,08,10,01,28,15.80
2017,08,10,01,29,15.70
2017,08,10,01,30,15.70
2017,08,10,01,31,15.70
2017,08,10,01,32,15.70
2017,08,10,01,33,15.70
2017,08,10,01,34,15.60
2017,08,10,01,35,15.60
2017,08,10,01,36,15.60
2017,08,10,01,37,15.60
2017,08,10,01,38,15.60
2017,08,10,01,39,15.50
2017,08,10,01,40,15.50
2017,08,10,01,41,15.50
2017,08,10,01,42,15.40
2017,08,10,01,43,15.40
2017,08,10,01,44,15.40
2017,08,10,01,45,15.30
2017,08,10,01,46,15.30
2017,08,10,01,47,15.30
2017,08,10,01,48,15.30
2017,08,10,01,49,15.30
2017,08,10,01,50,15.20
2017,08,10,01,51,15.20
2017,08,10,01,52,15.20
2017,08,10,01,53,15.20
2017,08,10,01,54,15.20
2017,08,10,01,55,15.20
2017,08,10,01,56,15.10
2017,08,10,01,57,15.10
2017,08,10,01,58,15.10
2017,08,10,01,59,15.20
2017,08,10,02,00,15.20
2017,08,10,02,01,15.20
2017,08,10,02,02,15.20
2017,08,10,02,03,15.20
2017,08,10,02,04,15.20
2017,08,10,02,05,15.20
2017,08,10,02,06,15.20
2017,08,10,02,07,15.20
2017,08,10,02,08,15.20
2017,08,10,02,09,15.20
2017,08,10,02,10,15.20
2017,08,10,02,11,15.20
2017,08,10,02,12,15.20
2017,08,10,02,13,15.20
2017,08,10,02,14,15.20
2017,08,10,02,15,15.20
2017,08,10,02,16,15.20
2017,08,10,02,17,15.20
2017,08,10,02,18,15.30
2017,08,10,02,19,15.30
2017,08,10,02,20,15.30
2017,08,10,02,21,15.30
2017,08,10,02,22,15.40
2017,08,10,02,23,15.40
2017,08,10,02,24,15.50
2017,08,10,02,25,15.50
2017,08,10,02,26,15.50
2017,08,10,02,27,15.50
2017,08,10,02,28,15.60
2017,08,10,02,29,15.60
2017,08,10,02,30,15.60
2017,08,10,02,31,15.60
2017,08,10,02,32,15.70
2017,08,10,02,33,15.70
2017,08,10,02,34,15.70
2017,08,10,02,35,15.70
2017,08,10,02,36,15.70
2017,08,10,02,37,15.70
2017,08,10,02,38,15.70
2017,08,10,02,39,15.70
2017,08,10,02,40,15.70
2017,08,10,02,41,15.70
2017,08,10,02,42,15.70
2017,08,10,02,43,15.70
2017,08,10,02,44,15.70
2017,08,10,02,45,15.70
2017,08,10,02,46,15.60
2017,08,10,02,47,15.60
2017,08,10,02,48,15.60
2017,08,10,02,49,15.60
2017,08,10,02,50,15.60
2017,08,10,02,51,15.60
2017,08,10,02,52,15.60
2017,08,10,02,53,15.60
2017,08,10,02,54,15.60
2017,08,10,02,55,15.50
2017,08,10,02,56,15.50
2017,08,10,02,57,15.50
2017,08,10,02,58,15.50
2017,08,10,02,59,15.50
2017,08,10,03,00,15.50
2017,08,10,03,01,15.50
2017,08,10,03,02,15.50
2017,08,10,03,03,15.40
2017,08,10,03,04,15.50
2017,08,10,03,05,15.50
2017,08,10,03,06,15.40
2017,08,10,03,07,15.40
2017,08,10,03,08,15.40
2017,08,10,03,09,15.40
2017,08,10,03,10,15.40
2017,08,10,03,11,15.40
2017,08,10,03,12,15.40
2017,08,10,03,13,15.40
2017,08,10,03,14,15.40
2017,08,10,03,15,15.40
2017,08,10,03,16,15.40
2017,08,10,03,17,15.40
2017,08,10,03,18,15.40
2017,08,10,03,19,15.40
2017,08,10,03,20,15.40
2017,08,10,03,21,15.40
2017,08,10,03,22,15.40
2017,08,10,03,23,15.40
2017,08,10,03,24,15.40
2017,08,10,03,25,15.30
2017,08,10,03,26,15.30
2017,08,10,03,27,15.30
2017,08,10,03,28,15.30
2017,08,10,03,29,15.30
2017,08,10,03,30,15.30
2017,08,10,03,31,15.30
2017,08,10,03,32,15.20
2017,08,10,03,33,15.20
2017,08,10,03,34,15.20
2017,08,10,03,35,15.20
2017,08,10,03,36,15.10
2017,08,10,03,37,15.10
2017,08,10,03,38,15.10
2017,08,10,03,39,15.10
2017,08,10,03,40,15.10
2017,08,10,03,41,15.10
2017,08,10,03,42,15.10
2017,08,10,03,43,15.10
2017,08,10,03,44,15.10
2017,08,10,03,45,15.00
2017,08,10,03,46,15.00
2017,08,10,03,47,15.00
2017,08,10,03,48,14.90
2017,08,10,03,49,14.90
2017,08,10,03,50,14.90
2017,08,10,03,51,14.90
2017,08,10,03,52,14.90
2017,08,10,03,53,14.80
2017,08,10,03,54,14.80
2017,08,10,03,55,14.80
2017,08,10,03,56,14.80
2017,08,10,03,57,14.80
2017,08,10,03,58,14.80
2017,08,10,03,59,14.70
2017,08,10,04,00,14.70
2017,08,10,04,01,14.70
2017,08,10,04,02,14.70
2017,08,10,04,03,14.60
2017,08,10,04,04,14.60
2017,08,10,04,05,14.60
2017,08,10,04,06,14.60
2017,08,10,04,07,14.70
2017,08,10,04,08,14.70
2017,08,10,04,09,14.70
2017,08,10,04,10,14.70
2017,08,10,04,11,14.70
2017,08,10,04,12,14.70
2017,08,10,04,13,14.70
2017,08,10,04,14,14.70
2017,08,10,04,15,14.70
2017,08,10,04,16,14.70
2017,08,10,04,17,14.60
2017,08,10,04,18,14.60
2017,08,10,04,19,14.60
2017,08,10,04,20,14.60
2017,08,10,04,21,14.60
2017,08,10,04,22,14.60
2017,08,10,04,23,14.60
2017,08,10,04,24,14.60
2017,08,10,04,25,14.60
2017,08,10,04,26,14.60
2017,08,10,04,27,14.50
2017,08,10,04,28,14.50
2017,08,10,04,29,14.50
2017,08,10,04,30,14.50
2017,08,10,04,31,14.40
2017,08,10,04,32,14.40
2017,08,10,04,33,14.40
2017,08,10,04,34,14.40
2017,08,10,04,35,14.30
2017,08,10,04,36,14.30
2017,08,10,04,37,14.30
2017,08,10,04,38,14.30
2017,08,10,04,39,14.20
2017,08,10,04,40,14.20
2017,08,10,04,41,14.20
2017,08,10,04,42,14.10
2017,08,10,04,43,14.10
2017,08,10,04,44,14.00
2017,08,10,04,45,14.00
2017,08,10,04,46,13.90
2017,08,10,04,47,13.90
2017,08,10,04,48,13.90
2017,08,10,04,49,13.80
2017,08,10,04,50,13.80
2017,08,10,04,51,13.80
2017,08,10,04,52,13.80
2017,08,10,04,53,13.80
2017,08,10,04,54,13.70
2017,08,10,04,55,13.70
2017,08,10,04,56,13.70
2017,08,10,04,57,13.70
2017,08,10,04,58,13.70
2017,08,10,04,59,13.70
2017,08,10,05,00,13.70
2017,08,10,05,01,13.70
2017,08,10,05,02,13.70
2017,08,10,05,03,13.70
2017,08,10,05,04,13.60
2017,08,10,05,05,13.60
2017,08,10,05,06,13.60
2017,08,10,05,07,13.60
2017,08,10,05,08,13.60
2017,08,10,05,09,13.60
2017,08,10,05,10,13.60
2017,08,10,05,11,13.50
2017,08,10,05,12,13.50
2017,08,10,05,13,13.50
2017,08,10,05,14,13.40
2017,08,10,05,15,13.40
2017,08,10,05,16,13.40
2017,08,10,05,17,13.40
2017,08,10,05,18,13.40
2017,08,10,05,19,13.40
2017,08,10,05,20,13.40
2017,08,10,05,21,13.30
2017,08,10,05,22,13.30
2017,08,10,05,23,13.30
2017,08,10,05,24,13.30
2017,08,10,05,25,13.30
2017,08,10,05,26,13.30
2017,08,10,05,27,13.20
2017,08,10,05,28,13.20
2017,08,10,05,29,13.20
2017,08,10,05,30,13.20
2017,08,10,05,31,13.20
2017,08,10,05,32,13.20
2017,08,10,05,33,13.20
2017,08,10,05,34,13.20
2017,08,10,05,35,13.10
2017,08,10,05,36,13.10
2017,08,10,05,37,13.10
2017,08,10,05,38,13.10
2017,08,10,05,39,13.10
2017,08,10,05,40,13.10
2017,08,10,05,41,13.10
2017,08,10,05,42,13.10
2017,08,10,05,43,13.10
2017,08,10,05,44,13.10
2017,08,10,05,45,13.00
2017,08,10,05,46,13.10
2017,08,10,05,47,13.10
2017,08,10,05,48,13.10
2017,08,10,05,49,13.10
2017,08,10,05,50,13.10
2017,08,10,05,51,13.20
2017,08,10,05,52,13.20
2017,08,10,05,53,13.20
2017,08,10,05,54,13.20
2017,08,10,05,55,13.20
2017,08,10,05,56,13.10
2017,08,10,05,57,13.10
2017,08,10,05,58,13.10
2017,08,10,05,59,13.00
2017,08,10,06,00,13.00
2017,08,10,06,01,13.00
2017,08,10,06,02,13.00
2017,08,10,06,03,13.00
2017,08,10,06,04,13.10
2017,08,10,06,05,13.10
2017,08,10,06,06,13.10
2017,08,10,06,07,13.10
2017,08,10,06,08,13.10
2017,08,10,06,09,13.20
2017,08,10,06,10,13.10
2017,08,10,06,11,13.10
2017,08,10,06,12,13.10
2017,08,10,06,13,13.00
2017,08,10,06,14,13.00
2017,08,10,06,15,12.90
2017,08,10,06,16,12.90
2017,08,10,06,17,12.90
2017,08,10,06,18,12.90
2017,08,10,06,19,12.80
2017,08,10,06,20,12.80
2017,08,10,06,21,12.80
2017,08,10,06,22,12.80
2017,08,10,06,23,12.70
2017,08,10,06,24,12.70
2017,08,10,06,25,12.70
2017,08,10,06,26,12.70
2017,08,10,06,27,12.70
2017,08,10,06,28,12.70
2017,08,10,06,29,12.70
2017,08,10,06,30,12.70
2017,08,10,06,31,12.70
2017,08,10,06,32,12.70
2017,08,10,06,33,12.70
2017,08,10,06,34,12.80
2017,08,10,06,35,12.80
2017,08,10,06,36,12.80
2017,08,10,06,37,12.90
2017,08,10,06,38,12.90
2017,08,10,06,39,12.90
2017,08,10,06,40,12.90
2017,08,10,06,41,12.90
2017,08,10,06,42,12.90
2017,08,10,06,43,13.00
2017,08,10,06,44,13.00
2017,08,10,06,45,13.10
2017,08,10,06,46,13.10
2017,08,10,06,47,13.10
2017,08,10,06,48,13.10
2017,08,10,06,49,13.10
2017,08,10,06,50,13.10
2017,08,10,06,51,13.10
2017,08,10,06,52,13.10
2017,08,10,06,53,13.00
2017,08,10,06,54,13.00
2017,08,10,06,55,13.00
2017,08,10,06,56,13.00
2017,08,10,06,57,13.00
2017,08,10,06,58,13.00
2017,08,10,06,59,12.90
2017,08,10,07,00,12.90
2017,08,10,07,01,12.90
2017,08,10,07,02,12.90
2017,08,10,07,03,12.90
2017,08,10,07,04,12.90
2017,08,10,07,05,12.90
2017,08,10,07,06,12.90
2017,08,10,07,07,13.00
2017,08,10,07,08,13.00
2017,08,10,07,09,13.00
2017,08,10,07,10,13.00
2017,08,10,07,11,13.00
2017,08,10,07,12,13.10
2017,08,10,07,13,13.10
2017,08,10,07,14,13.10
2017,08,10,07,15,13.10
2017,08,10,07,16,13.10
2017,08,10,07,17,13.20
2017,08,10,07,18,13.20
2017,08,10,07,19,13.20
2017,08,10,07,20,13.20
2017,08,10,07,21,13.20
2017,08,10,07,22,13.30
2017,08,10,07,23,13.30
2017,08,10,07,24,13.30
2017,08,10,07,25,13.40
2017,08,10,07,26,13.40
2017,08,10,07,27,13.40
2017,08,10,07,28,13.50
2017,08,10,07,29,13.50
2017,08,10,07,30,13.50
2017,08,10,07,31,13.50
2017,08,10,07,32,13.60
2017,08,10,07,33,13.60
2017,08,10,07,34,13.60
2017,08,10,07,35,13.60
2017,08,10,07,36,13.60
2017,08,10,07,37,13.70
2017,08,10,07,38,13.70
2017,08,10,07,39,13.70
2017,08,10,07,40,13.80
2017,08,10,07,41,13.80
2017,08,10,07,42,13.80
2017,08,10,07,43,13.90
2017,08,10,07,44,13.90
2017,08,10,07,45,13.90
2017,08,10,07,46,14.00
2017,08,10,07,47,14.00
2017,08,10,07,48,14.00
2017,08,10,07,49,14.10
2017,08,10,07,50,14.10
2017,08,10,07,51,14.10
2017,08,10,07,52,14.10
2017,08,10,07,53,14.10
2017,08,10,07,54,14.10
2017,08,10,07,55,14.10
2017,08,10,07,56,14.10
2017,08,10,07,57,14.10
2017,08,10,07,58,14.20
2017,08,10,07,59,14.20
2017,08,10,08,00,14.20
2017,08,10,08,01,14.20
2017,08,10,08,02,14.20
2017,08,10,08,03,14.20
2017,08,10,08,04,14.30
2017,08,10,08,05,14.30
2017,08,10,08,06,14.30
2017,08,10,08,07,14.30
2017,08,10,08,08,14.30
2017,08,10,08,09,14.30
2017,08,10,08,10,14.30
2017,08,10,08,11,14.40
2017,08,10,08,12,14.40
2017,08,10,08,13,14.40
2017,08,10,08,14,14.40
2017,08,10,08,15,14.40
2017,08,10,08,16,14.40
2017,08,10,08,17,14.40
2017,08,10,08,18,14.50
2017,08,10,08,19,14.50
2017,08,10,08,20,14.50
2017,08,10,08,21,14.50
2017,08,10,08,22,14.60
2017,08,10,08,23,14.60
2017,08,10,08,24,14.60
2017,08,10,08,25,14.60
2017,08,10,08,26,14.60
2017,08,10,08,27,14.60
2017,08,10,08,28,14.60
2017,08,10,08,29,14.60
2017,08,10,08,30,14.60
2017,08,10,08,31,14.60
2017,08,10,08,32,14.60
2017,08,10,08,33,14.60
2017,08,10,08,34,14.70
2017,08,10,08,35,14.70
2017,08,10,08,36,14.70
2017,08,10,08,37,14.70
2017,08,10,08,38,14.70
2017,08,10,08,39,14.70
2017,08,10,08,40,14.70
2017,08,10,08,41,14.70
2017,08,10,08,42,14.70
2017,08,10,08,43,14.70
2017,08,10,08,44,14.70
2017,08,10,08,45,14.70
2017,08,10,08,46,14.70
2017,08,10,08,47,14.70
2017,08,10,08,48,14.70
2017,08,10,08,49,14.70
2017,08,10,08,50,14.80
2017,08,10,08,51,14.80
2017,08,10,08,52,14.80
2017,08,10,08,53,14.80
2017,08,10,08,54,14.80
2017,08,10,08,55,14.80
2017,08,10,08,56,14.80
2017,08,10,08,57,14.80
2017,08,10,08,58,14.90
2017,08,10,08,59,14.90
2017,08,10,09,00,14.90
2017,08,10,09,01,14.90
2017,08,10,09,02,14.90
2017,08,10,09,03,15.00
2017,08,10,09,04,15.00
2017,08,10,09,05,15.00
2017,08,10,09,06,15.00
2017,08,10,09,07,15.00
2017,08,10,09,08,15.00
2017,08,10,09,09,15.00
2017,08,10,09,10,15.10
2017,08,10,09,11,15.10
2017,08,10,09,12,15.10
2017,08,10,09,13,15.10
2017,08,10,09,14,15.20
2017,08,10,09,15,15.20
2017,08,10,09,16,15.20
2017,08,10,09,17,15.30
2017,08,10,09,18,15.30
2017,08,10,09,19,15.30
2017,08,10,09,20,15.30
2017,08,10,09,21,15.30
2017,08,10,09,22,15.40
2017,08,10,09,23,15.40
2017,08,10,09,24,15.40
2017,08,10,09,25,15.40
2017,08,10,09,26,15.40
2017,08,10,09,27,15.50
2017,08,10,09,28,15.50
2017,08,10,09,29,15.60
2017,08,10,09,30,15.60
2017,08,10,09,31,15.60
2017,08,10,09,32,15.60
2017,08,10,09,33,15.60
2017,08,10,09,34,15.70
2017,08,10,09,35,15.70
2017,08,10,09,36,15.70
2017,08,10,09,37,15.70
2017,08,10,09,38,15.70
2017,08,10,09,39,15.70
2017,08,10,09,40,15.60
2017,08,10,09,41,15.60
2017,08,10,09,42,15.60
2017,08,10,09,43,15.60
2017,08,10,09,44,15.60
2017,08,10,09,45,15.60
2017,08,10,09,46,15.60
2017,08,10,09,47,15.70
2017,08,10,09,48,15.70
2017,08,10,09,49,15.70
2017,08,10,09,50,15.70
2017,08,10,09,51,15.70
2017,08,10,09,52,15.70
2017,08,10,09,53,15.70
2017,08,10,09,54,15.80
2017,08,10,09,55,15.80
2017,08,10,09,56,15.80
2017,08,10,09,57,15.80
2017,08,10,09,58,15.80
2017,08,10,09,59,15.80
2017,08,10,10,00,15.80
2017,08,10,10,01,15.90
2017,08,10,10,02,15.90
2017,08,10,10,03,15.90
2017,08,10,10,04,16.00
2017,08,10,10,05,16.10
2017,08,10,10,06,16.10
2017,08,10,10,07,16.20
2017,08,10,10,08,16.20
2017,08,10,10,09,16.30
2017,08,10,10,10,16.30
2017,08,10,10,11,16.40
2017,08,10,10,12,16.40
2017,08,10,10,13,16.40
2017,08,10,10,14,16.40
2017,08,10,10,15,16.50
2017,08,10,10,16,16.50
2017,08,10,10,17,16.40
2017,08,10,10,18,16.40
2017,08,10,10,19,16.40
2017,08,10,10,20,16.50
2017,08,10,10,21,16.50
2017,08,10,10,22,16.60
2017,08,10,10,23,16.60
2017,08,10,10,24,16.60
2017,08,10,10,25,16.60
2017,08,10,10,26,16.70
2017,08,10,10,27,16.70
2017,08,10,10,28,16.70
2017,08,10,10,29,16.70
2017,08,10,10,30,16.70
2017,08,10,10,31,16.70
2017,08,10,10,32,16.80
2017,08,10,10,33,16.80
2017,08,10,10,34,16.80
2017,08,10,10,35,16.80
2017,08,10,10,36,16.90
2017,08,10,10,37,16.90
2017,08,10,10,38,16.90
2017,08,10,10,39,17.00
2017,08,10,10,40,17.00
2017,08,10,10,41,17.00
2017,08,10,10,42,17.10
2017,08,10,10,43,17.20
2017,08,10,10,44,17.20
2017,08,10,10,45,17.20
2017,08,10,10,46,17.20
2017,08,10,10,47,17.30
2017,08,10,10,48,17.30
2017,08,10,10,49,17.40
2017,08,10,10,50,17.40
2017,08,10,10,51,17.50
2017,08,10,10,52,17.60
2017,08,10,10,53,17.70
2017,08,10,10,54,17.70
2017,08,10,10,55,17.80
2017,08,10,10,56,17.80
2017,08,10,10,57,17.90
2017,08,10,10,58,17.90
2017,08,10,10,59,17.90
2017,08,10,11,00,17.90
2017,08,10,11,01,18.00
2017,08,10,11,02,18.00
2017,08,10,11,03,18.00
2017,08,10,11,04,18.00
2017,08,10,11,05,18.00
2017,08,10,11,06,18.00
2017,08,10,11,07,18.10
2017,08,10,11,08,18.10
2017,08,10,11,09,18.10
2017,08,10,11,10,18.20
2017,08,10,11,11,18.20
2017,08,10,11,12,18.20
2017,08,10,11,13,18.20
2017,08,10,11,14,18.30
2017,08,10,11,15,18.30
2017,08,10,11,16,18.40
2017,08,10,11,17,18.40
2017,08,10,11,18,18.40
2017,08,10,11,19,18.40
2017,08,10,11,20,18.40
2017,08,10,11,21,18.40
2017,08,10,11,22,18.50
2017,08,10,11,23,18.50
2017,08,10,11,24,18.50
2017,08,10,11,25,18.60
2017,08,10,11,26,18.60
2017,08,10,11,27,18.60
2017,08,10,11,28,18.60
2017,08,10,11,29,18.70
2017,08,10,11,30,18.70
2017,08,10,11,31,18.70
2017,08,10,11,32,18.80
2017,08,10,11,33,18.80
2017,08,10,11,34,18.80
2017,08,10,11,35,18.80
2017,08,10,11,36,18.80
2017,08,10,11,37,18.80
2017,08,10,11,38,18.80
2017,08,10,11,39,18.80
2017,08,10,11,40,18.80
2017,08,10,11,41,18.80
2017,08,10,11,42,18.80
2017,08,10,11,43,18.70
2017,08,10,11,44,18.70
2017,08,10,11,45,18.70
2017,08,10,11,46,18.70
2017,08,10,11,47,18.80
2017,08,10,11,48,18.80
2017,08,10,11,49,18.80
2017,08,10,11,50,18.80
2017,08,10,11,51,18.80
2017,08,10,11,52,18.80
2017,08,10,11,53,18.80
2017,08,10,11,54,18.90
2017,08,10,11,55,19.00
2017,08,10,11,56,19.10
2017,08,10,11,57,19.10
2017,08,10,11,58,19.20
2017,08,10,11,59,19.20
2017,08,10,12,00,19.20
2017,08,10,12,01,19.30
2017,08,10,12,02,19.30
2017,08,10,12,03,19.40
2017,08,10,12,04,19.30
2017,08,10,12,05,19.30
2017,08,10,12,06,19.30
2017,08,10,12,07,19.30
2017,08,10,12,08,19.30
2017,08,10,12,09,19.40
2017,08,10,12,10,19.40
2017,08,10,12,11,19.50
2017,08,10,12,12,19.50
2017,08,10,12,13,19.60
2017,08,10,12,14,19.70
2017,08,10,12,15,19.70
2017,08,10,12,16,19.80
2017,08,10,12,17,19.90
2017,08,10,12,18,20.00
2017,08,10,12,19,20.10
2017,08,10,12,20,20.20
2017,08,10,12,21,20.30
2017,08,10,12,22,20.30
2017,08,10,12,23,20.40
2017,08,10,12,24,20.40
2017,08,10,12,25,20.50
2017,08,10,12,26,20.60
2017,08,10,12,27,20.60
2017,08,10,12,28,20.60
2017,08,10,12,29,20.60
2017,08,10,12,30,20.70
2017,08,10,12,31,20.70
2017,08,10,12,32,20.80
2017,08,10,12,33,20.90
2017,08,10,12,34,20.90
2017,08,10,12,35,21.00
2017,08,10,12,36,21.10
2017,08,10,12,37,21.10
2017,08,10,12,38,21.10
2017,08,10,12,39,21.10
2017,08,10,12,40,21.10
2017,08,10,12,41,21.20
2017,08,10,12,42,21.20
2017,08,10,12,43,21.30
2017,08,10,12,44,21.30
2017,08,10,12,45,21.40
2017,08,10,12,46,21.50
2017,08,10,12,47,21.50
2017,08,10,12,48,21.60
2017,08,10,12,49,21.60
2017,08,10,12,50,21.70
2017,08,10,12,51,21.70
2017,08,10,12,52,21.80
2017,08,10,12,53,21.80
2017,08,10,12,54,21.90
2017,08,10,12,55,21.90
2017,08,10,12,56,22.00
2017,08,10,12,57,22.00
2017,08,10,12,58,22.00
2017,08,10,12,59,22.10
2017,08,10,13,00,22.10
2017,08,10,13,01,22.10
2017,08,10,13,02,22.20
2017,08,10,13,03,22.20
2017,08,10,13,04,22.30
2017,08,10,13,05,22.30
2017,08,10,13,06,22.40
2017,08,10,13,07,22.40
2017,08,10,13,08,22.50
2017,08,10,13,09,22.50
2017,08,10,13,10,22.60
2017,08,10,13,11,22.60
2017,08,10,13,12,22.60
2017,08,10,13,13,22.70
2017,08,10,13,14,22.70
2017,08,10,13,15,22.70
2017,08,10,13,16,22.70
2017,08,10,13,17,22.60
2017,08,10,13,18,22.60
2017,08,10,13,19,22.60
2017,08,10,13,20,22.50
2017,08,10,13,21,22.40
2017,08,10,13,22,22.40
2017,08,10,13,23,22.40
2017,08,10,13,24,22.40
2017,08,10,13,25,22.50
2017,08,10,13,26,22.50
2017,08,10,13,27,22.60
2017,08,10,13,28,22.60
2017,08,10,13,29,22.70
2017,08,10,13,30,22.80
2017,08,10,13,31,22.90
2017,08,10,13,32,23.00
2017,08,10,13,33,23.00
2017,08,10,13,34,23.10
2017,08,10,13,35,23.10
2017,08,10,13,36,23.10
2017,08,10,13,37,23.10
2017,08,10,13,38,23.10
2017,08,10,13,39,23.10
2017,08,10,13,40,23.20
2017,08,10,13,41,23.20
2017,08,10,13,42,23.30
2017,08,10,13,43,23.30
2017,08,10,13,44,23.40
2017,08,10,13,45,23.50
2017,08,10,13,46,23.60
2017,08,10,13,47,23.60
2017,08,10,13,48,23.70
2017,08,10,13,49,23.70
2017,08,10,13,50,23.80
2017,08,10,13,51,23.80
2017,08,10,13,52,23.90
2017,08,10,13,53,24.00
2017,08,10,13,54,24.00
2017,08,10,13,55,24.10
2017,08,10,13,56,24.20
2017,08,10,13,57,24.30
2017,08,10,13,58,24.40
2017,08,10,13,59,24.40
2017,08,10,14,00,24.50
2017,08,10,14,01,24.50
2017,08,10,14,02,24.50
2017,08,10,14,03,24.40
2017,08,10,14,04,24.30
2017,08,10,14,05,24.30
2017,08,10,14,06,24.30
2017,08,10,14,07,24.30
2017,08,10,14,08,24.30
2017,08,10,14,09,24.30
2017,08,10,14,10,24.30
2017,08,10,14,11,24.40
2017,08,10,14,12,24.50
2017,08,10,14,13,24.50
2017,08,10,14,14,24.60
2017,08,10,14,15,24.60
2017,08,10,14,16,24.70
2017,08,10,14,17,24.70
2017,08,10,14,18,24.70
2017,08,10,14,19,24.70
2017,08,10,14,20,24.60
2017,08,10,14,21,24.60
2017,08,10,14,22,24.50
2017,08,10,14,23,24.40
2017,08,10,14,24,24.40
2017,08,10,14,25,24.40
2017,08,10,14,26,24.40
2017,08,10,14,27,24.40
2017,08,10,14,28,24.50
2017,08,10,14,29,24.50
2017,08,10,14,30,24.40
2017,08,10,14,31,24.50
2017,08,10,14,32,24.50
2017,08,10,14,33,24.50
2017,08,10,14,34,24.50
2017,08,10,14,35,24.50
2017,08,10,14,36,24.50
2017,08,10,14,37,24.50
2017,08,10,14,38,24.50
2017,08,10,14,39,24.40
2017,08,10,14,40,24.40
2017,08,10,14,41,24.40
2017,08,10,14,42,24.40
2017,08,10,14,43,24.40
2017,08,10,14,44,24.40
2017,08,10,14,45,24.40
2017,08,10,14,46,24.50
2017,08,10,14,47,24.60
2017,08,10,14,48,24.70
2017,08,10,14,49,24.70
2017,08,10,14,50,24.80
2017,08,10,14,51,24.80
2017,08,10,14,52,24.80
2017,08,10,14,53,24.80
2017,08,10,14,54,24.80
2017,08,10,14,55,24.80
2017,08,10,14,56,24.80
2017,08,10,14,57,24.80
2017,08,10,14,58,24.80
2017,08,10,14,59,24.70
2017,08,10,15,00,24.70
2017,08,10,15,01,24.70
2017,08,10,15,02,24.60
2017,08,10,15,03,24.60
2017,08,10,15,04,24.60
2017,08,10,15,05,24.60
2017,08,10,15,06,24.60
2017,08,10,15,07,24.60
2017,08,10,15,08,24.70
2017,08,10,15,09,24.70
2017,08,10,15,10,24.80
2017,08,10,15,11,24.80
2017,08,10,15,12,24.80
2017,08,10,15,13,24.90
2017,08,10,15,14,25.00
2017,08,10,15,15,25.00
2017,08,10,15,16,25.10
2017,08,10,15,17,25.20
2017,08,10,15,18,25.30
2017,08,10,15,19,25.40
2017,08,10,15,20,25.50
2017,08,10,15,21,25.50
2017,08,10,15,22,25.60
2017,08,10,15,23,25.60
2017,08,10,15,24,25.60
2017,08,10,15,25,25.60
2017,08,10,15,26,25.50
2017,08,10,15,27,25.40
2017,08,10,15,28,25.40
2017,08,10,15,29,25.40
2017,08,10,15,30,25.40
2017,08,10,15,31,25.40
2017,08,10,15,32,25.30
2017,08,10,15,33,25.30
2017,08,10,15,34,25.30
2017,08,10,15,35,25.30
2017,08,10,15,36,25.30
2017,08,10,15,37,25.30
2017,08,10,15,38,25.30
2017,08,10,15,39,25.30
2017,08,10,15,40,25.30
2017,08,10,15,41,25.30
2017,08,10,15,42,25.30
2017,08,10,15,43,25.30
2017,08,10,15,44,25.30
2017,08,10,15,45,25.30
2017,08,10,15,46,25.30
2017,08,10,15,47,25.20
2017,08,10,15,48,25.20
2017,08,10,15,49,25.20
2017,08,10,15,50,25.20
2017,08,10,15,51,25.30
2017,08,10,15,52,25.30
2017,08,10,15,53,25.30
2017,08,10,15,54,25.30
2017,08,10,15,55,25.40
2017,08,10,15,56,25.40
2017,08,10,15,57,25.40
2017,08,10,15,58,25.50
2017,08,10,15,59,25.60
2017,08,10,16,00,25.60
2017,08,10,16,01,25.70
2017,08,10,16,02,25.70
2017,08,10,16,03,25.70
2017,08,10,16,04,25.70
2017,08,10,16,05,25.70
2017,08,10,16,06,25.80
2017,08,10,16,07,25.80
2017,08,10,16,08,25.90
2017,08,10,16,09,26.00
2017,08,10,16,10,26.00
2017,08,10,16,11,26.10
2017,08,10,16,12,26.10
2017,08,10,16,13,26.10
2017,08,10,16,14,26.10
2017,08,10,16,15,26.00
2017,08,10,16,16,26.00
2017,08,10,16,17,26.00
2017,08,10,16,18,26.00
2017,08,10,16,19,26.00
2017,08,10,16,20,25.90
2017,08,10,16,21,25.90
2017,08,10,16,22,25.90
2017,08,10,16,23,25.90
2017,08,10,16,24,25.90
2017,08,10,16,25,25.90
2017,08,10,16,26,25.90
2017,08,10,16,27,25.90
2017,08,10,16,28,25.80
2017,08,10,16,29,25.80
2017,08,10,16,30,25.80
2017,08,10,16,31,25.80
2017,08,10,16,32,25.80
2017,08,10,16,33,25.80
2017,08,10,16,34,25.80
2017,08,10,16,35,25.90
2017,08,10,16,36,25.90
2017,08,10,16,37,26.00
2017,08,10,16,38,26.00
2017,08,10,16,39,26.00
2017,08,10,16,40,26.00
2017,08,10,16,41,26.00
2017,08,10,16,42,26.00
2017,08,10,16,43,26.10
2017,08,10,16,44,26.00
2017,08,10,16,45,26.00
2017,08,10,16,46,26.00
2017,08,10,16,47,26.00
2017,08,10,16,48,26.00
2017,08,10,16,49,26.00
2017,08,10,16,50,26.10
2017,08,10,16,51,26.10
2017,08,10,16,52,26.20
2017,08,10,16,53,26.20
2017,08,10,16,54,26.30
2017,08,10,16,55,26.30
2017,08,10,16,56,26.30
2017,08,10,16,57,26.30
2017,08,10,16,58,26.40
2017,08,10,16,59,26.40
2017,08,10,17,00,26.50
2017,08,10,17,01,26.60
2017,08,10,17,02,26.60
2017,08,10,17,03,26.70
2017,08,10,17,04,26.70
2017,08,10,17,05,26.70
2017,08,10,17,06,26.70
2017,08,10,17,07,26.70
2017,08,10,17,08,26.70
2017,08,10,17,09,26.70
2017,08,10,17,10,26.70
2017,08,10,17,11,26.70
2017,08,10,17,12,26.70
2017,08,10,17,13,26.70
2017,08,10,17,14,26.70
2017,08,10,17,15,26.70
2017,08,10,17,16,26.70
2017,08,10,17,17,26.70
2017,08,10,17,18,26.70
2017,08,10,17,19,26.60